Time,TemperatureF,DewpointF,PressureIn,WindDirection,WindDirectionDegrees,WindSpeedMPH,WindSpeedGustMPH,Humidity,HourlyPrecipIn,Conditions,Clouds,dailyrainin,SoftwareType,DateUTC
2013-11-17 00:23:00,63.0,48.0,29.35,SW,226,9.0,13.0,58,0.00,,,0.00,,2013-11-17 06:23:00,
2013-11-17 00:42:00,63.0,48.0,29.35,South,177,5.0,13.0,57,0.00,,,0.00,,2013-11-17 06:42:00,
2013-11-17 00:52:00,63.0,48.0,29.35,South,177,5.0,13.0,57,0.00,,,0.00,,2013-11-17 06:52:00,
2013-11-17 01:22:00,62.0,39.0,29.35,SW,226,3.0,14.0,42,0.00,,,0.00,,2013-11-17 07:22:00,
2013-11-17 01:42:00,62.0,37.0,29.35,WSW,248,5.0,12.0,40,0.00,,,0.00,,2013-11-17 07:42:00,
2013-11-17 01:53:00,62.0,37.0,29.35,WSW,248,5.0,12.0,40,0.00,,,0.00,,2013-11-17 07:53:00,
2013-11-17 02:22:00,60.0,36.0,29.36,South,188,3.0,12.0,41,0.00,,,0.00,,2013-11-17 08:22:00,
2013-11-17 02:52:00,59.0,37.0,29.37,SSW,195,6.0,13.0,43,0.00,,,0.00,,2013-11-17 08:52:00,
2013-11-17 03:03:00,59.0,37.0,29.37,SSW,195,6.0,13.0,43,0.00,,,0.00,,2013-11-17 09:03:00,
2013-11-17 03:12:00,59.0,37.0,29.37,SSW,195,6.0,13.0,43,0.00,,,0.00,,2013-11-17 09:12:00,
2013-11-17 03:22:00,59.0,37.0,29.37,SSW,195,6.0,13.0,43,0.00,,,0.00,,2013-11-17 09:22:00,
2013-11-17 03:43:00,59.0,36.0,29.38,SW,229,3.0,12.0,42,0.00,,,0.00,,2013-11-17 09:43:00,
2013-11-17 03:54:00,59.0,35.0,29.38,West,271,10.0,13.0,41,0.00,,,0.00,,2013-11-17 09:54:00,
2013-11-17 04:13:00,58.0,34.0,29.39,West,271,6.0,14.0,40,0.00,,,0.00,,2013-11-17 10:13:00,
2013-11-17 04:23:00,58.0,34.0,29.39,West,271,6.0,14.0,40,0.00,,,0.00,,2013-11-17 10:23:00,
2013-11-17 04:53:00,58.0,34.0,29.44,West,271,6.0,6.0,40,0.00,,,0.00,,2013-11-17 10:53:00,
2013-11-17 05:02:00,58.0,34.0,29.44,West,271,6.0,6.0,40,0.00,,,0.00,,2013-11-17 11:02:00,
2013-11-17 05:22:00,58.0,34.0,29.46,West,271,6.0,6.0,40,0.00,,,0.00,,2013-11-17 11:22:00,
2013-11-17 05:43:00,58.0,34.0,29.47,West,271,6.0,6.0,40,0.00,,,0.00,,2013-11-17 11:43:00,
2013-11-17 05:52:00,58.0,34.0,29.47,West,271,6.0,6.0,40,0.00,,,0.00,,2013-11-17 11:52:00,
2013-11-17 06:02:00,58.0,34.0,29.47,West,271,6.0,6.0,40,0.00,,,0.00,,2013-11-17 12:02:00,
2013-11-17 08:42:00,47.0,38.0,29.63,SW,225,5.0,8.0,71,0.00,,,0.00,,2013-11-17 14:42:00,
2013-11-17 08:52:00,47.0,38.0,29.63,SW,225,5.0,8.0,71,0.00,,,0.00,,2013-11-17 14:52:00,
2013-11-17 09:22:00,52.0,37.0,29.67,West,271,8.0,11.0,57,0.00,,,0.00,,2013-11-17 15:22:00,
2013-11-17 09:34:00,52.0,37.0,29.67,West,271,8.0,11.0,57,0.00,,,0.00,,2013-11-17 15:34:00,
2013-11-17 09:43:00,52.0,37.0,29.67,West,271,8.0,11.0,57,0.00,,,0.00,,2013-11-17 15:43:00,
2013-11-17 09:54:00,52.0,37.0,29.67,West,271,8.0,11.0,57,0.00,,,0.00,,2013-11-17 15:54:00,
2013-11-17 10:13:00,59.0,30.0,29.72,NNW,335,7.0,23.0,33,0.00,,,0.00,,2013-11-17 16:13:00,
2013-11-17 10:23:00,59.0,30.0,29.72,NNW,335,7.0,23.0,33,0.00,,,0.00,,2013-11-17 16:23:00,
2013-11-17 10:42:00,59.0,27.0,29.72,NW,307,22.0,27.0,29,0.00,,,0.00,,2013-11-17 16:42:00,
2013-11-17 10:53:00,60.0,25.0,29.74,WNW,286,10.0,33.0,26,0.00,,,0.00,,2013-11-17 16:53:00,
2013-11-17 11:03:00,60.0,25.0,29.74,WNW,286,10.0,33.0,26,0.00,,,0.00,,2013-11-17 17:03:00,
2013-11-17 11:22:00,61.0,26.0,29.77,WNW,290,6.0,28.0,26,0.00,,,0.00,,2013-11-17 17:22:00,
2013-11-17 11:52:00,61.0,23.0,29.79,WNW,293,29.0,30.0,23,0.00,,,0.00,,2013-11-17 17:52:00,
2013-11-17 12:03:00,61.0,23.0,29.79,WNW,293,29.0,30.0,23,0.00,,,0.00,,2013-11-17 18:03:00,
2013-11-17 12:23:00,61.0,18.0,29.79,NW,319,11.0,33.0,19,0.00,,,0.00,,2013-11-17 18:23:00,
2013-11-17 12:52:00,62.0,15.0,29.80,NW,311,22.0,29.0,16,0.00,,,0.00,,2013-11-17 18:52:00,
2013-11-17 13:22:00,62.0,12.0,29.81,NW,319,26.0,32.0,14,0.00,,,0.00,,2013-11-17 19:22:00,
2013-11-17 13:52:00,62.0,18.0,29.83,NW,315,15.0,36.0,18,0.00,,,0.00,,2013-11-17 19:52:00,
2013-11-17 14:02:00,62.0,18.0,29.83,NW,315,15.0,36.0,18,0.00,,,0.00,,2013-11-17 20:02:00,
2013-11-17 14:22:00,62.0,19.0,29.83,NW,307,24.0,32.0,19,0.00,,,0.00,,2013-11-17 20:22:00,
2013-11-17 14:52:00,62.0,20.0,29.85,WNW,299,11.0,26.0,20,0.00,,,0.00,,2013-11-17 20:52:00,
2013-11-17 15:12:00,61.0,21.0,29.86,NW,308,12.0,28.0,21,0.00,,,0.00,,2013-11-17 21:12:00,
2013-11-17 15:22:00,61.0,21.0,29.86,NW,308,12.0,28.0,21,0.00,,,0.00,,2013-11-17 21:22:00,
2013-11-17 15:34:00,61.0,21.0,29.86,NW,308,12.0,28.0,21,0.00,,,0.00,,2013-11-17 21:34:00,
2013-11-17 16:14:00,61.0,23.0,29.90,North,1,12.0,24.0,23,0.00,,,0.00,,2013-11-17 22:14:00,
2013-11-17 16:24:00,61.0,23.0,29.90,North,1,12.0,24.0,23,0.00,,,0.00,,2013-11-17 22:24:00,
2013-11-17 16:43:00,60.0,24.0,29.93,WNW,300,7.0,25.0,25,0.00,,,0.00,,2013-11-17 22:43:00,
2013-11-17 16:53:00,60.0,24.0,29.93,WNW,300,7.0,25.0,25,0.00,,,0.00,,2013-11-17 22:53:00,
2013-11-17 17:23:00,58.0,22.0,29.96,WNW,290,7.0,16.0,25,0.00,,,0.00,,2013-11-17 23:23:00,
2013-11-17 17:33:00,58.0,22.0,29.96,WNW,290,7.0,16.0,25,0.00,,,0.00,,2013-11-17 23:33:00,
2013-11-17 17:52:00,56.0,25.0,29.99,NNW,332,4.0,12.0,30,0.00,,,0.00,,2013-11-17 23:52:00,
2013-11-17 18:21:00,55.0,28.0,30.02,NW,307,9.0,13.0,35,0.00,,,0.00,,2013-11-18 00:21:00,
2013-11-17 18:32:00,55.0,28.0,30.02,NW,307,9.0,13.0,35,0.00,,,0.00,,2013-11-18 00:32:00,
2013-11-17 18:42:00,55.0,28.0,30.02,NW,307,9.0,13.0,35,0.00,,,0.00,,2013-11-18 00:42:00,
2013-11-17 18:52:00,55.0,28.0,30.02,NW,307,9.0,13.0,35,0.00,,,0.00,,2013-11-18 00:52:00,
2013-11-17 19:11:00,52.0,30.0,30.05,NW,316,5.0,8.0,43,0.00,,,0.00,,2013-11-18 01:11:00,
2013-11-17 19:22:00,52.0,30.0,30.05,NW,316,5.0,8.0,43,0.00,,,0.00,,2013-11-18 01:22:00,
2013-11-17 19:52:00,49.0,30.0,30.07,WNW,284,0.0,7.0,47,0.00,,,0.00,,2013-11-18 01:52:00,
2013-11-17 20:11:00,48.0,30.0,30.08,WNW,291,0.0,1.0,49,0.00,,,0.00,,2013-11-18 02:11:00,
2013-11-17 20:21:00,48.0,30.0,30.08,WNW,291,0.0,1.0,49,0.00,,,0.00,,2013-11-18 02:21:00,
2013-11-17 20:52:00,47.0,31.0,30.11,NW,304,5.0,8.0,53,0.00,,,0.00,,2013-11-18 02:52:00,
2013-11-17 21:02:00,47.0,31.0,30.11,NW,304,5.0,8.0,53,0.00,,,0.00,,2013-11-18 03:02:00,
2013-11-17 21:22:00,46.0,31.0,30.14,North,1,6.0,7.0,55,0.00,,,0.00,,2013-11-18 03:22:00,
2013-11-17 21:44:00,46.0,31.0,30.15,NW,318,0.0,8.0,56,0.00,,,0.00,,2013-11-18 03:44:00,
2013-11-17 21:54:00,46.0,31.0,30.15,NW,318,0.0,8.0,56,0.00,,,0.00,,2013-11-18 03:54:00,
2013-11-17 22:03:00,46.0,31.0,30.15,NW,318,0.0,8.0,56,0.00,,,0.00,,2013-11-18 04:03:00,
2013-11-17 22:13:00,46.0,31.0,30.15,NW,318,0.0,8.0,56,0.00,,,0.00,,2013-11-18 04:13:00,
2013-11-17 22:23:00,43.0,30.0,30.16,NW,313,0.0,1.0,60,0.00,,,0.00,,2013-11-18 04:23:00,
2013-11-17 22:52:00,41.0,30.0,30.17,SW,233,0.0,1.0,64,0.00,,,0.00,,2013-11-18 04:52:00,
2013-11-17 23:02:00,41.0,30.0,30.17,SW,233,0.0,1.0,64,0.00,,,0.00,,2013-11-18 05:02:00,
2013-11-17 23:22:00,40.0,30.0,30.16,SW,236,0.0,1.0,66,0.00,,,0.00,,2013-11-18 05:22:00,
2013-11-17 23:43:00,40.0,30.0,30.17,WSW,242,0.0,1.0,67,0.00,,,0.00,,2013-11-18 05:43:00,
2013-11-17 23:53:00,40.0,30.0,30.17,WSW,242,0.0,1.0,67,0.00,,,0.00,,2013-11-18 05:53:00,